MST,Max TemperatureF,Mean TemperatureF,Min TemperatureF,Max Dew PointF,MeanDew PointF,Min DewpointF,Max Humidity, Mean Humidity, Min Humidity, Max Sea Level PressureIn, Mean Sea Level PressureIn, Min Sea Level PressureIn, Max VisibilityMiles, Mean VisibilityMiles, Min VisibilityMiles, Max Wind SpeedMPH, Mean Wind SpeedMPH, Max Gust SpeedMPH,PrecipitationIn, CloudCover, Events, WindDirDegrees
2012-11-1,87,70,53,27,25,21,28,16,11,29.96,29.89,29.83,10,10,10,8,5,,0.00,1,,326
2012-11-2,86,72,59,30,29,28,31,19,12,29.94,29.89,29.82,10,10,10,7,4,,0.00,2,,23
2012-11-3,,,,,,,,,,,,,,,,,,,,,,
2012-11-4,,,,,,,,,,,,,,,,,,,,,,
2012-11-5,91,73,55,27,22,16,29,14,8,30.08,30.01,29.96,10,10,10,12,6,,0.00,0,,45
2012-11-6,91,75,59,28,25,19,22,15,10,30.06,29.99,29.94,10,10,10,8,5,,0.00,0,,262
2012-11-7,89,74,59,30,25,19,27,16,10,30.02,29.92,29.86,10,10,10,9,5,,0.00,0,,265
2012-11-8,86,72,57,39,30,21,29,20,12,29.93,29.85,29.80,10,10,10,12,5,14,0.00,3,,242
2012-11-9,78,71,64,46,45,43,52,40,28,29.85,29.78,29.70,10,9,7,16,10,23,0.00,4,,269
2012-11-10,,,,,,,,,,,,,,,,,,,,,,
2012-11-11,,,,,,,,,,,,,,,,,,,,,,
2012-11-12,,,,,,,,,,,,,,,,,,,,,,
2012-11-13,77,57,37,16,11,7,30,15,8,30.19,30.11,30.04,10,10,10,12,7,16,0.00,0,,55
2012-11-14,80,62,44,16,13,10,27,14,8,30.11,30.04,29.99,10,10,10,8,4,,0.00,2,,262
2012-11-15,69,58,46,25,19,10,23,19,15,30.14,30.08,30.04,10,10,10,5,3,,0.00,7,,102
2012-11-16,80,65,50,21,20,18,28,18,10,30.12,30.06,30.00,10,10,10,6,4,,0.00,2,,319
2012-11-17,,,,,,,,,,,,,,,,,,,,,,
2012-11-18,,,,,,,,,,,,,,,,,,,,,,
2012-11-19,78,64,50,43,40,34,71,37,24,30.21,30.15,30.10,10,10,10,8,4,,0.00,0,,26
2012-11-20,82,68,53,37,33,28,47,28,16,30.13,30.04,29.97,10,10,10,9,5,,0.00,1,,40
2012-11-21,78,64,51,32,31,30,44,28,17,30.06,30.03,29.98,10,10,10,5,3,,0.00,1,,72
2012-11-22,,,,,,,,,,,,,,,,,,,,,,
2012-11-23,78,60,48,32,28,25,40,29,15,30.18,30.16,30.11,10,10,10,12,5,,0.00,0,,43
2012-11-24,,,,,,,,,,,,,,,,,,,,,,
2012-11-25,,,,,,,,,,,,,,,,,,,,,,
2012-11-26,80,64,48,37,33,27,43,29,20,30.07,30.01,29.97,10,10,10,7,4,,0.00,1,,32
2012-11-27,84,68,51,34,28,25,44,24,12,30.15,30.07,29.99,10,10,10,13,7,22,0.00,5,,61
2012-11-28,80,66,51,34,30,25,35,25,17,30.14,30.10,30.04,10,10,10,8,5,,0.00,3,,252
2012-11-29,78,64,50,45,39,32,52,36,22,30.18,30.13,30.08,10,10,10,7,4,,0.00,1,,201
2012-11-30,78,66,55,48,46,45,67,45,32,30.15,30.09,30.03,10,10,10,6,4,,0.00,6,,70